Meath Environmental Platform

Observations for Trim Market St

Time AQI Temp °C Hum % Pres Pa CO μg/m³ H₂S μg/m³ NO μg/m³ NO₂ μg/m³ O₃ μg/m³ SO₂ μg/m³ PM1 μg/m³ PM2.5 μg/m³ PM10 μg/m³
Monday 17 August 2026
18:27 2 23.9 55 55,887 0.05 0 1.3 13.3 80.14 0 0 2.73 3.24
18:26 2 23.9 55 55,864 0 0 1.37 12.89 80.87 0 0.71 2.73 3.24
18:17 2 24 55 55,952 0 0 1.37 12.95 80.45 0 0.71 2.74 4.67
18:16 2 24 55 56,001 0 0 1.38 12.91 81.19 0 0.71 3.25 3.95
18:15 2 24 55 56,063 0 0 1.44 12.72 78.54 0 0.71 3.25 4.66
18:14 2 24.1 55 56,141 0 0 1.5 13.08 80.34 0 0.71 2.24 3.95
18:13 2 24.1 55 56,218 0 0 1.5 12.92 77.49 0 0.71 3.26 3.95
18:12 2 24.1 55 56,287 0 0 1.37 14.54 82.7 0 0 2.25 2.51
18:11 2 24.1 55 56,310 0 0 1.49 14 81.37 0 0 2.25 2.5
18:10 2 24.1 54 56,376 0 0 2.29 13.48 83.96 0 0 2.26 2.5
18:09 2 24.1 54 56,488 0 0 3.18 13.44 88.75 0 0.71 3.28 4.65
18:08 2 24.1 54 56,670 0 0 3.14 13.2 85.51 0 0 2.27 2.49
18:07 2 24.2 54 56,924 0 0 3.34 14.29 70.84 0 0.71 3.8 4.64
18:06 2 24.2 54 57,285 0 6.27 3.28 45.46 54.73 0 0.71 3.82 4.64
18:05 2 24.2 53 57,699 0.01 5.66 2.88 58.19 52.1 0 0.71 3.33 3.9
18:04 2 24.2 53 58,274 0 0 1.09 15.23 83.13 0 1.43 3.35 3.88
18:00 2 24.3 52 59,575 0 0 1.11 12.01 74.13 0 0.71 2.86 3.14
17:58 2 24.4 52 60,078 0 0 1.24 11.55 68.62 0 0.71 3.89 4.6
17:57 2 24.4 52 60,207 0 0 1.23 11.42 67.2 0 0 2.87 3.13
17:50 2 24.6 53 59,170 0 0 1.22 11.57 62.62 0 2.14 3.36 3.88